Time,TemperatureF,DewpointF,PressureIn,WindDirection,WindDirectionDegrees,WindSpeedMPH,WindSpeedGustMPH,Humidity,HourlyPrecipIn,Conditions,Clouds,dailyrainin,SoftwareType,DateUTC
2013-05-11 00:03:00,65.0,-99.9,-100.00,North,-999,-999.0,-999.0,-999,0.00,,,0.00,,2013-05-11 04:03:00,
2013-05-11 00:13:00,65.0,-99.9,-100.00,North,-999,-999.0,-999.0,-999,0.00,,,0.00,,2013-05-11 04:13:00,
2013-05-11 00:23:00,65.0,-99.9,-100.00,North,-999,-999.0,-999.0,-999,0.00,,,0.00,,2013-05-11 04:23:00,
2013-05-11 00:30:00,64.0,-99.9,-100.00,North,-999,-999.0,-999.0,-999,0.00,,,0.00,,2013-05-11 04:30:00,
2013-05-11 00:43:00,64.0,-99.9,-100.00,North,-999,-999.0,-999.0,-999,0.00,,,0.00,,2013-05-11 04:43:00,
2013-05-11 00:53:00,64.0,-99.9,-100.00,North,-999,-999.0,-999.0,-999,0.00,,,0.00,,2013-05-11 04:53:00,
2013-05-11 01:02:00,64.0,-99.9,-100.00,North,-999,-999.0,-999.0,-999,0.00,,,0.00,,2013-05-11 05:02:00,
2013-05-11 01:12:00,64.0,-99.9,-100.00,North,-999,-999.0,-999.0,-999,0.00,,,0.00,,2013-05-11 05:12:00,
2013-05-11 01:22:00,64.0,-99.9,-100.00,North,-999,-999.0,-999.0,-999,0.00,,,0.00,,2013-05-11 05:22:00,
2013-05-11 01:30:00,65.0,-99.9,-100.00,North,-999,-999.0,-999.0,-999,0.00,,,0.00,,2013-05-11 05:30:00,
2013-05-11 02:02:00,65.0,-99.9,-100.00,North,-999,-999.0,-999.0,-999,0.00,,,0.00,,2013-05-11 06:02:00,
2013-05-11 02:12:00,65.0,-99.9,-100.00,North,-999,-999.0,-999.0,-999,0.00,,,0.00,,2013-05-11 06:12:00,
2013-05-11 02:22:00,65.0,-99.9,-100.00,North,-999,-999.0,-999.0,-999,0.00,,,0.00,,2013-05-11 06:22:00,
2013-05-11 02:30:00,65.0,-99.9,-100.00,North,-999,-999.0,-999.0,-999,0.00,,,0.00,,2013-05-11 06:30:00,
2013-05-11 03:02:00,65.0,-99.9,-100.00,North,-999,-999.0,-999.0,-999,0.00,,,0.00,,2013-05-11 07:02:00,
2013-05-11 03:12:00,65.0,-99.9,-100.00,North,-999,-999.0,-999.0,-999,0.00,,,0.00,,2013-05-11 07:12:00,
2013-05-11 03:22:00,65.0,-99.9,-100.00,North,-999,-999.0,-999.0,-999,0.00,,,0.00,,2013-05-11 07:22:00,
2013-05-11 03:30:00,64.0,-99.9,-100.00,North,-999,-999.0,-999.0,-999,0.00,,,0.00,,2013-05-11 07:30:00,
2013-05-11 04:02:00,64.0,-99.9,-100.00,North,-999,-999.0,-999.0,-999,0.00,,,0.00,,2013-05-11 08:02:00,
2013-05-11 04:12:00,64.0,-99.9,-100.00,North,-999,-999.0,-999.0,-999,0.00,,,0.00,,2013-05-11 08:12:00,
2013-05-11 04:22:00,64.0,-99.9,-100.00,North,-999,-999.0,-999.0,-999,0.00,,,0.00,,2013-05-11 08:22:00,
2013-05-11 04:30:00,62.0,-99.9,-100.00,North,-999,-999.0,-999.0,-999,0.00,,,0.00,,2013-05-11 08:30:00,
2013-05-11 05:02:00,62.0,-99.9,-100.00,North,-999,-999.0,-999.0,-999,0.00,,,0.00,,2013-05-11 09:02:00,
2013-05-11 05:12:00,62.0,-99.9,-100.00,North,-999,-999.0,-999.0,-999,0.00,,,0.00,,2013-05-11 09:12:00,
2013-05-11 05:22:00,62.0,-99.9,-100.00,North,-999,-999.0,-999.0,-999,0.00,,,0.00,,2013-05-11 09:22:00,
2013-05-11 05:30:00,60.0,-99.9,-100.00,North,-999,-999.0,-999.0,-999,0.01,,,0.01,,2013-05-11 09:30:00,
2013-05-11 06:03:00,60.0,-99.9,-100.00,North,-999,-999.0,-999.0,-999,0.01,,,0.01,,2013-05-11 10:03:00,
2013-05-11 06:12:00,60.0,-99.9,-100.00,North,-999,-999.0,-999.0,-999,0.01,,,0.01,,2013-05-11 10:12:00,
2013-05-11 06:23:00,60.0,-99.9,-100.00,North,-999,-999.0,-999.0,-999,0.01,,,0.01,,2013-05-11 10:23:00,
2013-05-11 06:30:00,59.0,-99.9,-100.00,North,-999,-999.0,-999.0,-999,0.03,,,0.04,,2013-05-11 10:30:00,
2013-05-11 06:42:00,59.0,-99.9,-100.00,North,-999,-999.0,-999.0,-999,0.03,,,0.03,,2013-05-11 10:42:00,
2013-05-11 06:53:00,59.0,-99.9,-100.00,North,-999,-999.0,-999.0,-999,0.03,,,0.03,,2013-05-11 10:53:00,
2013-05-11 07:03:00,59.0,-99.9,-100.00,North,-999,-999.0,-999.0,-999,0.03,,,0.04,,2013-05-11 11:03:00,
2013-05-11 07:12:00,59.0,-99.9,-100.00,North,-999,-999.0,-999.0,-999,0.03,,,0.04,,2013-05-11 11:12:00,
2013-05-11 07:22:00,59.0,-99.9,-100.00,North,-999,-999.0,-999.0,-999,0.03,,,0.04,,2013-05-11 11:22:00,
2013-05-11 07:30:00,59.0,-99.9,-100.00,North,-999,-999.0,-999.0,-999,0.01,,,0.05,,2013-05-11 11:30:00,
2013-05-11 08:02:00,59.0,-99.9,-100.00,North,-999,-999.0,-999.0,-999,0.01,,,0.05,,2013-05-11 12:02:00,
2013-05-11 08:12:00,59.0,-99.9,-100.00,North,-999,-999.0,-999.0,-999,0.01,,,0.05,,2013-05-11 12:12:00,
2013-05-11 08:22:00,59.0,-99.9,-100.00,North,-999,-999.0,-999.0,-999,0.01,,,0.05,,2013-05-11 12:22:00,
2013-05-11 08:30:00,61.0,-99.9,-100.00,North,-999,-999.0,-999.0,-999,0.00,,,0.05,,2013-05-11 12:30:00,
2013-05-11 09:02:00,61.0,-99.9,-100.00,North,-999,-999.0,-999.0,-999,0.00,,,0.05,,2013-05-11 13:02:00,
2013-05-11 09:11:00,61.0,-99.9,-100.00,North,-999,-999.0,-999.0,-999,0.00,,,0.05,,2013-05-11 13:11:00,
2013-05-11 09:22:00,61.0,-99.9,-100.00,North,-999,-999.0,-999.0,-999,0.00,,,0.05,,2013-05-11 13:22:00,
2013-05-11 09:30:00,63.0,-99.9,-100.00,North,-999,-999.0,-999.0,-999,0.00,,,0.05,,2013-05-11 13:30:00,
2013-05-11 10:02:00,63.0,-99.9,-100.00,North,-999,-999.0,-999.0,-999,0.00,,,0.05,,2013-05-11 14:02:00,
2013-05-11 10:11:00,63.0,-99.9,-100.00,North,-999,-999.0,-999.0,-999,0.00,,,0.05,,2013-05-11 14:11:00,
2013-05-11 10:22:00,63.0,-99.9,-100.00,North,-999,-999.0,-999.0,-999,0.00,,,0.05,,2013-05-11 14:22:00,
2013-05-11 10:30:00,64.0,-99.9,-100.00,North,-999,-999.0,-999.0,-999,0.00,,,0.05,,2013-05-11 14:30:00,
2013-05-11 11:02:00,64.0,-99.9,-100.00,North,-999,-999.0,-999.0,-999,0.00,,,0.05,,2013-05-11 15:02:00,
2013-05-11 11:12:00,64.0,-99.9,-100.00,North,-999,-999.0,-999.0,-999,0.00,,,0.05,,2013-05-11 15:12:00,
2013-05-11 11:22:00,64.0,-99.9,-100.00,North,-999,-999.0,-999.0,-999,0.00,,,0.05,,2013-05-11 15:22:00,
2013-05-11 11:30:00,64.0,-99.9,-100.00,North,-999,-999.0,-999.0,-999,0.00,,,0.05,,2013-05-11 15:30:00,
2013-05-11 12:03:00,64.0,-99.9,-100.00,North,-999,-999.0,-999.0,-999,0.00,,,0.05,,2013-05-11 16:03:00,
2013-05-11 12:12:00,64.0,-99.9,-100.00,North,-999,-999.0,-999.0,-999,0.00,,,0.05,,2013-05-11 16:12:00,
2013-05-11 12:23:00,64.0,-99.9,-100.00,North,-999,-999.0,-999.0,-999,0.00,,,0.05,,2013-05-11 16:23:00,
2013-05-11 12:30:00,64.0,-99.9,-100.00,North,-999,-999.0,-999.0,-999,0.00,,,0.05,,2013-05-11 16:30:00,
2013-05-11 12:42:00,64.0,-99.9,-100.00,North,-999,-999.0,-999.0,-999,0.00,,,0.05,,2013-05-11 16:42:00,
2013-05-11 12:53:00,64.0,-99.9,-100.00,North,-999,-999.0,-999.0,-999,0.00,,,0.05,,2013-05-11 16:53:00,
2013-05-11 13:02:00,64.0,-99.9,-100.00,North,-999,-999.0,-999.0,-999,0.00,,,0.05,,2013-05-11 17:02:00,
2013-05-11 13:12:00,64.0,-99.9,-100.00,North,-999,-999.0,-999.0,-999,0.00,,,0.05,,2013-05-11 17:12:00,
2013-05-11 13:22:00,64.0,-99.9,-100.00,North,-999,-999.0,-999.0,-999,0.00,,,0.05,,2013-05-11 17:22:00,
2013-05-11 13:30:00,63.0,-99.9,-100.00,North,-999,-999.0,-999.0,-999,0.02,,,0.07,,2013-05-11 17:30:00,
2013-05-11 14:02:00,63.0,-99.9,-100.00,North,-999,-999.0,-999.0,-999,0.02,,,0.07,,2013-05-11 18:02:00,
2013-05-11 14:12:00,63.0,-99.9,-100.00,North,-999,-999.0,-999.0,-999,0.02,,,0.07,,2013-05-11 18:12:00,
2013-05-11 14:22:00,63.0,-99.9,-100.00,North,-999,-999.0,-999.0,-999,0.02,,,0.07,,2013-05-11 18:22:00,
2013-05-11 14:30:00,65.0,-99.9,-100.00,North,-999,-999.0,-999.0,-999,0.02,,,0.09,,2013-05-11 18:30:00,
2013-05-11 15:02:00,65.0,-99.9,-100.00,North,-999,-999.0,-999.0,-999,0.02,,,0.09,,2013-05-11 19:02:00,
2013-05-11 15:11:00,65.0,-99.9,-100.00,North,-999,-999.0,-999.0,-999,0.02,,,0.09,,2013-05-11 19:11:00,
2013-05-11 15:22:00,65.0,-99.9,-100.00,North,-999,-999.0,-999.0,-999,0.02,,,0.09,,2013-05-11 19:22:00,
2013-05-11 15:30:00,65.0,-99.9,-100.00,North,-999,-999.0,-999.0,-999,0.01,,,0.10,,2013-05-11 19:30:00,
2013-05-11 16:02:00,65.0,-99.9,-100.00,North,-999,-999.0,-999.0,-999,0.01,,,0.10,,2013-05-11 20:02:00,
2013-05-11 16:12:00,65.0,-99.9,-100.00,North,-999,-999.0,-999.0,-999,0.01,,,0.10,,2013-05-11 20:12:00,
2013-05-11 16:22:00,65.0,-99.9,-100.00,North,-999,-999.0,-999.0,-999,0.01,,,0.10,,2013-05-11 20:22:00,
2013-05-11 16:30:00,64.0,-99.9,-100.00,North,-999,-999.0,-999.0,-999,0.08,,,0.18,,2013-05-11 20:30:00,
2013-05-11 17:02:00,64.0,-99.9,-100.00,North,-999,-999.0,-999.0,-999,0.08,,,0.18,,2013-05-11 21:02:00,
2013-05-11 17:12:00,64.0,-99.9,-100.00,North,-999,-999.0,-999.0,-999,0.08,,,0.18,,2013-05-11 21:12:00,
2013-05-11 17:22:00,64.0,-99.9,-100.00,North,-999,-999.0,-999.0,-999,0.08,,,0.18,,2013-05-11 21:22:00,
2013-05-11 17:30:00,63.0,-99.9,-100.00,North,-999,-999.0,-999.0,-999,0.02,,,0.20,,2013-05-11 21:30:00,
2013-05-11 18:03:00,63.0,-99.9,-100.00,North,-999,-999.0,-999.0,-999,0.02,,,0.20,,2013-05-11 22:03:00,
2013-05-11 18:13:00,63.0,-99.9,-100.00,North,-999,-999.0,-999.0,-999,0.02,,,0.20,,2013-05-11 22:13:00,
2013-05-11 18:23:00,63.0,-99.9,-100.00,North,-999,-999.0,-999.0,-999,0.02,,,0.20,,2013-05-11 22:23:00,
2013-05-11 18:30:00,63.0,-99.9,-100.00,North,-999,-999.0,-999.0,-999,0.03,,,0.23,,2013-05-11 22:30:00,
2013-05-11 18:43:00,63.0,-99.9,-100.00,North,-999,-999.0,-999.0,-999,0.01,,,0.21,,2013-05-11 22:43:00,
2013-05-11 18:52:00,63.0,-99.9,-100.00,North,-999,-999.0,-999.0,-999,0.01,,,0.21,,2013-05-11 22:52:00,
2013-05-11 19:03:00,63.0,-99.9,-100.00,North,-999,-999.0,-999.0,-999,0.03,,,0.23,,2013-05-11 23:03:00,
2013-05-11 19:12:00,63.0,-99.9,-100.00,North,-999,-999.0,-999.0,-999,0.03,,,0.23,,2013-05-11 23:12:00,
2013-05-11 19:22:00,63.0,-99.9,-100.00,North,-999,-999.0,-999.0,-999,0.03,,,0.23,,2013-05-11 23:22:00,
2013-05-11 19:30:00,63.0,-99.9,-100.00,North,-999,-999.0,-999.0,-999,0.01,,,0.24,,2013-05-11 23:30:00,
2013-05-11 20:02:00,63.0,-99.9,-100.00,North,-999,-999.0,-999.0,-999,0.01,,,0.24,,2013-05-12 00:02:00,
2013-05-11 20:12:00,63.0,-99.9,-100.00,North,-999,-999.0,-999.0,-999,0.01,,,0.24,,2013-05-12 00:12:00,
2013-05-11 20:22:00,63.0,-99.9,-100.00,North,-999,-999.0,-999.0,-999,0.01,,,0.24,,2013-05-12 00:22:00,
2013-05-11 20:30:00,62.0,-99.9,-100.00,North,-999,-999.0,-999.0,-999,0.00,,,0.24,,2013-05-12 00:30:00,
2013-05-11 21:02:00,62.0,-99.9,-100.00,North,-999,-999.0,-999.0,-999,0.00,,,0.24,,2013-05-12 01:02:00,
2013-05-11 21:11:00,62.0,-99.9,-100.00,North,-999,-999.0,-999.0,-999,0.00,,,0.24,,2013-05-12 01:11:00,
2013-05-11 21:22:00,62.0,-99.9,-100.00,North,-999,-999.0,-999.0,-999,0.00,,,0.24,,2013-05-12 01:22:00,
2013-05-11 21:30:00,61.0,-99.9,-100.00,North,-999,-999.0,-999.0,-999,0.00,,,0.24,,2013-05-12 01:30:00,
2013-05-11 22:02:00,61.0,-99.9,-100.00,North,-999,-999.0,-999.0,-999,0.00,,,0.24,,2013-05-12 02:02:00,
2013-05-11 22:12:00,61.0,-99.9,-100.00,North,-999,-999.0,-999.0,-999,0.00,,,0.24,,2013-05-12 02:12:00,
2013-05-11 22:22:00,61.0,-99.9,-100.00,North,-999,-999.0,-999.0,-999,0.00,,,0.24,,2013-05-12 02:22:00,
2013-05-11 22:30:00,61.0,-99.9,-100.00,North,-999,-999.0,-999.0,-999,0.00,,,0.24,,2013-05-12 02:30:00,
2013-05-11 23:02:00,61.0,-99.9,-100.00,North,-999,-999.0,-999.0,-999,0.00,,,0.24,,2013-05-12 03:02:00,
2013-05-11 23:12:00,61.0,-99.9,-100.00,North,-999,-999.0,-999.0,-999,0.00,,,0.24,,2013-05-12 03:12:00,
2013-05-11 23:22:00,61.0,-99.9,-100.00,North,-999,-999.0,-999.0,-999,0.00,,,0.24,,2013-05-12 03:22:00,
2013-05-11 23:30:00,60.0,-99.9,-100.00,North,-999,-999.0,-999.0,-999,0.00,,,0.24,,2013-05-12 03:30:00,